Погода Гусь-Хрустальный

Погода Гусь-Хрустальный : погода сейчас, прогноз погоды и архив. Всё, что Вы хотите узнать о погоде Гусь-Хрустальный!

Хотите узнать прогноз погоды Гусь-Хрустальный? Тогда Вам сюда: Погода Гусь-Хрустальный

Поиск расширенной информации на нашем сайте:

Другие новости

Новости СМИ2

Главная страница сайта

Новости сайта

03.07.2017

Напоминаем, что на нашем специализированном сайте Метеоцентр.Азия вы можете получить высокодетализированные автоматические прогнозы погоды по пунктам России, СНГ и мира в авиационном формате (включающие направление и скорость ветра, видимость, явления погоды, количество и форму облачности, нижнюю и верхнюю границу облачности).


Погода Гусь-Хрустальный - сегодня

Время (UTC), дата Ветер
(°,м/с) 
Видим.   Явления Облачность Т
(°С)
Тd
(°С)
f(%) Тe
(°С)
Pmin
(гПа)
dP
(гПа)
Po
(мм)
O2
(г/м3)
Тmin Tmax R s Состояние
почвы
12 20.10.17 290 (З) 20000 м    9/9 300 м кучево-дожд. 
[Cb cap]
+6 -0.6 63 +7  1020.2  753  297           
15 20.10.17 280 (З) 20000 м  {ливн. осадки}  9/9 300 м кучево-дожд. 
[Cb cap]
+2.2 +1 92 +3  1020.7  0.3  753  301    +6.1  0.3     
18 20.10.17 280 (З) 20000 м  {ливн. осадки}  8/8 300 м кучево-дожд. 
[Cb cap]
+1.3 +0.5 94 +2  1020.9  0.1  753  302           
21 20.10.17 тихо ()   10 км    6/5 300 м верхняя 
[Sc|Cs]
-0.9 -1.3 97 -1  1020.8  -0.2  753  304           
00 21.10.17 280 (З) 10 км    8/8 300 м верхняя 
[Sc|Cs]
+0.2 -0.3 96 +1  1019.8  -0.9  752  303           
03 21.10.17 260 (З) 4000 м  дымка  9/9 300 м 
[Sc]
+0.8 +0.2 96 +1  1019.2  -0.6  752  302  -1.1    0.3    влажная 
06 21.10.17 280 (З) 4000 м  слаб. дождь  10/10 300 м 
[Sc]
+1.1 +0.6 96 +2  1019  -0.2  751  301           
09 21.10.17 320 (СЗ) 20000 м  {дождь}  9/9 300 м 
[Sc]
+2.3 +0.7 89 +2  1018.7  -0.2  751  300           
12 21.10.17 310 (СЗ) 10 км  слаб. ливневой снег  9/9 300 м кучево-дожд. 
[Cb cap]
+1.9 +0.2 88 +3  1018  -0.7  751  300           
15 21.10.17 тихо ()   10 км  слаб. ливневой снег  9/9 300 м кучево-дожд. 
[Cb cap]
+0.9 -0.1 93 +1  1018.1  751  301    +3.3  0.5     
18 21.10.17 310 (СЗ) 10 км  {ливн. осадки}  8/8 300 м кучево-дожд. 
[Cb cap]
+0.3 -0.5 94 +1  1018.2  0.1  751  302           
21 21.10.17 310 (СЗ) 4000 м  слаб. ливневой снег  8/8 300 м кучево-дожд. 
[Cb cap]
-0.6 -1.2 96 1018.5  0.2  751  303           
00 22.10.17 350 (С) 10 км  {ливн. осадки}  6/6 300 м 
[Sc]
-1.3 -2.2 94 -1  1018.3  -0.2  751  304           
03 22.10.17 300 (СЗ) 10 км  {ливн. осадки}  9/9 300 м 
[Sc]
-2.3 -2.8 96 -2  1018.6  0.2  751  305  -2.7    0.3    замёрзшая 
06 22.10.17 290 (З) 20000 м  {ливн. осадки}  9/9 300 м кучево-дожд. 
[Cb cap]
-1.3 -2.3 93 -1  1018.6  0.1  751  304           
09 22.10.17 270 (З) 20000 м    8/8 300 м кучево-дожд. 
[Cb cap]
+1.2 -3.9 69 1018.1  -0.4  751  302           
12 22.10.17 300 (СЗ) 20000 м    9/9 300 м кучево-дожд. 
[Cb cap]
+1.1 -4.6 66 1017.7  -0.3  751  302           
15 22.10.17 220 (ЮЗ) 20000 м    3/3 300 м 
[Sc]
-1 -4.5 77 1017.6  -0.3  750  304    +1.8       
18 22.10.17 240 (ЮЗ) 20000 м    3/0 верхняя 
[Ci fib]
-1.5 -4.9 78 -1  1017.5  0.1  750  305           
21 22.10.17 250 (З) 20000 м    9/9 300 м 
[Sc]
-1.3 -5 76 -2  1017.1  0.1  750  304           
00 23.10.17 240 (ЮЗ) 10 км    8/8 300 м верхняя 
[Sc|Cs]
-1.2 -3.7 83 -2  1017  0.1  750  304           
03 23.10.17 220 (ЮЗ) 4000 м  слаб. снег  10/9 300 м средняя 
[Sc|As op]
-1.3 -2 95 -1  1016.8  -0.2  750  304  -2    0.4  <0.5  сухой снег
50-90% 
06 23.10.17 260 (З) 10 км  {снег}  10/9 300 м средняя 
[Sc|As op]
-1.1 -1.8 95 -1  1017.4  0.6  750  304           
09 23.10.17 330 (СЗ) 20000 м    9/9 300 м 
[Sc]
+1.1 -1.6 82 1018.5  1.2  751  302           
12 23.10.17 280 (З) 20000 м  {ливн. осадки}  9/9 300 м кучево-дожд. 
[Cb cap]
+1.5 -0.8 85 +1  1020.2  1.7  752  302           
Время (UTC), дата Ветер
(°,м/с) 
Видим.   Явления Облачность Т
(°С)
Тd
(°С)
f(%) Тe
(°С)
Pmin
(гПа)
dP
(гПа)
Po
(мм)
O2
(г/м3)
Тmin Tmax R s Состояние
почвы

Для получения пояснительной информации подведите курсор к названию столбца.

ПОГОДА Гусь-Хрустальный - архив

Всё, что Вы хотите узнать о погоде Гусь-Хрустальный - удобно и подробно!

Выберите нужную дату (начиная с 1 января 2015* года) и нажмите кнопку "Найти".
Будут отображены архивные сводки погоды по пункту Гусь-Хрустальный, начиная с указанной даты.


Отображать данные в формате CSV (для использования в таблицах Excel)


Внимание! Наш архив погоды предназначен исключительно для личного некоммерческого использования в познавательных целях. Если Вам необходимы официальные справки о состоянии погоды (для производственных, юридических, коммерческих и т.п. целей), обращайтесь в органы Росгидромета.

*Примечание: данная дата относится к архиву по метеостанциям СССР (Россия, СНГ, Балтия).
Архив по метеостанциям Зарубежной Европы и Азии (кроме Китая) хранится 10 дней, по другим регионам земного шара (Китай, Африка, Америка, Австралия, Океания) - 1 день.

Гусь-Хрустальный - район местоположения метеостанции


Название, широта, долгота, высота метеостанции:
Гусь-Хрустальный 55.6°ш. 40.6°д. 136 м над ур. моря [Российская Федерация]

Дополнительная информация

В oтличие oт бoльшинства пoгoдных сайтoв мы публикуем пoдрoбную метеoинфoрмацию в детальнoм прoфессиoнальнoм фoрмате.

Характеристики температуры и влажнoсти вoздуха измеряются на высoте 2 м в тени вдали oт зданий и деревьев.
Скoрoсть ветра измеряется на высoте 10 м (на урoвне рoста челoвека скoрoсть ветра ниже в 1.5-2 раза). Если метеoстанция нахoдится в гoрoде или в лесу, тo скoрoсть ветра занижена на 2-4 м/с пo сравнению с oткрытым местoм. Скoрoсть ветра над акватoриями крупных рек и oзёр, а также на вершинах хoлмoв на 2-5 м/с выше, чем в oбычных услoвиях.
Атмoсфернoе давление в разных тoчках местнoсти мoжет значительнo oтличаться oт давления на метеoстанции, в зависимoсти oт услoвий рельефа (при пoдъёме на 10 м давление пoнижается примернo на 1 мм рт.ст.).